Location: Misciano
(43.5000°N, 11.9500°E)
Time: 16:32:24
(UTC+00:00)

Tsikada Rocket - Pass Details

Date: 13 August 2020
Orbit: 957 x 1010 km, 82.9° (Epoch: 18 September)

Event Time Altitude Azimuth Distance (km) Brightness Sun altitude
Rises 22:19:33 0° 347° (NNW) 3,725 8.2 -30.7°
Reaches altitude 10° 22:22:10 10° 342° (NNW) 2,764 7.3 -30.9°
Maximum altitude 22:28:13 49° 270° (W) 1,248 4.5 -31.1°
Enters shadow 22:28:18 49° 267° (W) 1,248 4.5 -31.1°
